When you browse on this site, cookies collect data to enhance your experience and personalize the content and advertising you see.
Visit our Privacy Policy to learn more. By continuing to use the site, you agree to this use of cookies and data.
  • In Österreich
  • Länderverzeichnis
  • Für 7 Tage
  • Wassertemperatur
  • Wetterkarte
  • News
  • Widgets
  • user-avatar
    Anmelden

    Stündliche Wetter Medina

    Heute, 23 September, Montag

    Zeit Temperatur Niederschläge Wind Luftdruck Luftfeuchtigkeit
    00:00 +23°C° 0 mm 2 m/S 715 mmHg 82%
    01:00 +23°C° 0 mm 2 m/S 715 mmHg 79%
    02:00 +23°C° 0 mm 2 m/S 715 mmHg 77%
    03:00 +23°C° 0 mm 2 m/S 715 mmHg 76%
    04:00 +23°C° 0 mm 1 m/S 715 mmHg 74%
    05:00 +23°C° 0.1 mm 1 m/S 715 mmHg 74%
    06:00 +24°C° 0.1 mm 1 m/S 716 mmHg 74%
    07:00 +25°C° 0 mm 1 m/S 716 mmHg 74%
    08:00 +27°C° 0 mm 1 m/S 717 mmHg 69%
    09:00 +28°C° 0 mm 1 m/S 717 mmHg 64%
    10:00 +30°C° 0 mm 1 m/S 717 mmHg 60%
    11:00 +31°C° 0.1 mm 1 m/S 716 mmHg 60%
    12:00 +31°C° 0.1 mm 2 m/S 715 mmHg 60%
    13:00 +32°C° 0.1 mm 2 m/S 714 mmHg 61%
    14:00 +31°C° 0.5 mm 2 m/S 713 mmHg 69%
    15:00 +30°C° 0.5 mm 1 m/S 713 mmHg 76%
    16:00 +29°C° 0.5 mm 1 m/S 712 mmHg 84%
    17:00 +27°C° 0.3 mm 1 m/S 713 mmHg 87%
    18:00 +26°C° 0.3 mm 1 m/S 713 mmHg 90%
    19:00 +24°C° 0.3 mm 1 m/S 713 mmHg 93%
    20:00 +24°C° 0.1 mm 1 m/S 714 mmHg 92%
    21:00 +23°C° 0.1 mm 1 m/S 714 mmHg 91%
    22:00 +23°C° 0.1 mm 2 m/S 715 mmHg 91%
    23:00 +23°C° 0.4 mm 2 m/S 715 mmHg 90%

    Morgen, 24 September, Dienstag

    Zeit Temperatur Niederschläge Wind Luftdruck Luftfeuchtigkeit
    00:00 +23°C° 0.4 mm 1 m/S 715 mmHg 90%
    01:00 +22°C° 0.4 mm 1 m/S 714 mmHg 90%
    02:00 +22°C° 0.6 mm 1 m/S 714 mmHg 90%
    03:00 +22°C° 0.6 mm 1 m/S 714 mmHg 90%
    04:00 +22°C° 0.6 mm 1 m/S 714 mmHg 90%
    05:00 +22°C° 0.1 mm 1 m/S 715 mmHg 89%
    06:00 +23°C° 0.1 mm 1 m/S 715 mmHg 87%
    07:00 +23°C° 0.1 mm 1 m/S 716 mmHg 86%
    08:00 +25°C° 0 mm 1 m/S 716 mmHg 83%
    09:00 +26°C° 0 mm 1 m/S 716 mmHg 79%
    10:00 +25°C° 0 mm 0 m/S 717 mmHg 75%
    11:00 +28°C° 0 mm 1 m/S 716 mmHg 71%
    12:00 +29°C° 0 mm 1 m/S 715 mmHg 67%
    13:00 +31°C° 0 mm 2 m/S 715 mmHg 63%
    14:00 +30°C° 0.2 mm 2 m/S 714 mmHg 68%
    15:00 +29°C° 0.2 mm 1 m/S 714 mmHg 73%
    16:00 +29°C° 0.2 mm 1 m/S 713 mmHg 78%
    17:00 +27°C° 0.5 mm 1 m/S 714 mmHg 83%
    18:00 +26°C° 0.5 mm 1 m/S 714 mmHg 89%
    19:00 +22°C° 0.5 mm 0 m/S 714 mmHg 94%
    20:00 +24°C° 0.1 mm 1 m/S 715 mmHg 92%
    21:00 +24°C° 0.1 mm 1 m/S 715 mmHg 91%
    22:00 +24°C° 0.1 mm 1 m/S 715 mmHg 90%
    23:00 +24°C° 0.2 mm 1 m/S 715 mmHg 89%

    übermorgen, 25 September, Mittwoch

    Zeit Temperatur Niederschläge Wind Luftdruck Luftfeuchtigkeit
    00:00 +23°C° 0.2 mm 1 m/S 715 mmHg 89%
    01:00 +23°C° 0.2 mm 1 m/S 714 mmHg 88%
    02:00 +23°C° 0.4 mm 1 m/S 714 mmHg 88%
    03:00 +23°C° 0.4 mm 1 m/S 714 mmHg 88%
    04:00 +23°C° 0.4 mm 1 m/S 714 mmHg 88%
    05:00 +23°C° 0.3 mm 1 m/S 715 mmHg 87%
    06:00 +24°C° 0.3 mm 1 m/S 716 mmHg 87%
    07:00 +24°C° 0.3 mm 1 m/S 716 mmHg 87%
    08:00 +25°C° 0.1 mm 1 m/S 717 mmHg 84%
    09:00 +25°C° 0.1 mm 0 m/S 717 mmHg 80%
    10:00 +27°C° 0.1 mm 0 m/S 717 mmHg 77%
    11:00 +26°C° 0.8 mm 0 m/S 716 mmHg 80%
    12:00 +26°C° 0.8 mm 0 m/S 715 mmHg 84%
    13:00 +27°C° 0.8 mm 1 m/S 714 mmHg 87%
    14:00 +28°C° 0.3 mm 1 m/S 713 mmHg 85%
    15:00 +28°C° 0.3 mm 1 m/S 713 mmHg 83%
    16:00 +28°C° 0.3 mm 1 m/S 713 mmHg 81%
    17:00 +27°C° 0.5 mm 1 m/S 713 mmHg 85%
    18:00 +26°C° 0.5 mm 1 m/S 713 mmHg 89%
    19:00 +24°C° 0.5 mm 1 m/S 713 mmHg 92%
    20:00 +24°C° 0.7 mm 1 m/S 714 mmHg 92%
    21:00 +24°C° 0.7 mm 1 m/S 715 mmHg 92%
    22:00 +23°C° 0.7 mm 1 m/S 715 mmHg 91%
    23:00 +23°C° 1 mm 1 m/S 715 mmHg 92%

    26 September, Donnerstag

    Zeit Temperatur Niederschläge Wind Luftdruck Luftfeuchtigkeit
    00:00 +23°C° 1 mm 1 m/S 715 mmHg 93%
    01:00 +23°C° 1 mm 1 m/S 715 mmHg 94%
    02:00 +23°C° 0.4 mm 1 m/S 714 mmHg 94%
    03:00 +23°C° 0.4 mm 1 m/S 714 mmHg 94%
    04:00 +23°C° 0.4 mm 1 m/S 714 mmHg 94%
    05:00 +23°C° 0 mm 1 m/S 715 mmHg 92%
    06:00 +23°C° 0 mm 1 m/S 715 mmHg 90%
    07:00 +24°C° 0 mm 1 m/S 715 mmHg 88%
    08:00 +25°C° 0 mm 1 m/S 716 mmHg 85%
    09:00 +26°C° 0 mm 1 m/S 716 mmHg 81%
    10:00 +25°C° 0 mm 0 m/S 716 mmHg 77%
    11:00 +25°C° 0.4 mm 0 m/S 715 mmHg 79%
    12:00 +25°C° 0.4 mm 0 m/S 715 mmHg 81%
    13:00 +27°C° 0.4 mm 1 m/S 714 mmHg 83%
    14:00 +26°C° 0.3 mm 1 m/S 713 mmHg 85%
    15:00 +25°C° 0.3 mm 1 m/S 713 mmHg 88%
    16:00 +25°C° 0.3 mm 1 m/S 712 mmHg 90%
    17:00 +24°C° 0.1 mm 1 m/S 713 mmHg 89%
    18:00 +24°C° 0.1 mm 1 m/S 713 mmHg 88%
    19:00 +23°C° 0.1 mm 1 m/S 713 mmHg 87%
    20:00 +23°C° 0 mm 1 m/S 714 mmHg 86%
    21:00 +23°C° 0 mm 1 m/S 714 mmHg 85%
    22:00 +23°C° 0 mm 1 m/S 715 mmHg 85%
    23:00 +23°C° 0 mm 1 m/S 714 mmHg 83%

    27 September, Freitag

    Zeit Temperatur Niederschläge Wind Luftdruck Luftfeuchtigkeit
    00:00 +24°C° 0 mm 1 m/S 714 mmHg 81%
    01:00 +24°C° 0 mm 1 m/S 714 mmHg 79%
    02:00 +23°C° 0 mm 1 m/S 714 mmHg 80%
    03:00 +23°C° 0 mm 1 m/S 714 mmHg 81%
    04:00 +23°C° 0 mm 1 m/S 714 mmHg 82%
    05:00 +23°C° 0 mm 1 m/S 714 mmHg 81%
    06:00 +24°C° 0 mm 1 m/S 715 mmHg 79%
    07:00 +25°C° 0 mm 1 m/S 716 mmHg 78%
    08:00 +26°C° 0.2 mm 1 m/S 716 mmHg 75%
    09:00 +28°C° 0.2 mm 1 m/S 716 mmHg 72%
    10:00 +29°C° 0.2 mm 1 m/S 716 mmHg 69%
    11:00 +30°C° 0.3 mm 1 m/S 715 mmHg 68%
    12:00 +31°C° 0.3 mm 1 m/S 715 mmHg 66%
    13:00 +31°C° 0.3 mm 2 m/S 714 mmHg 65%
    14:00 +31°C° 0.5 mm 1 m/S 713 mmHg 68%
    15:00 +30°C° 0.5 mm 1 m/S 713 mmHg 72%
    16:00 +29°C° 0.5 mm 1 m/S 712 mmHg 76%
    17:00 +28°C° 0.4 mm 1 m/S 713 mmHg 80%
    18:00 +26°C° 0.4 mm 1 m/S 713 mmHg 85%
    19:00 +25°C° 0.4 mm 1 m/S 713 mmHg 89%
    20:00 +24°C° 0 mm 1 m/S 713 mmHg 89%
    21:00 +24°C° 0 mm 1 m/S 713 mmHg 88%
    22:00 +23°C° 0 mm 2 m/S 714 mmHg 88%
    23:00 +23°C° 0 mm 2 m/S 714 mmHg 86%

    28 September, Samstag

    Zeit Temperatur Niederschläge Wind Luftdruck Luftfeuchtigkeit
    00:00 +23°C° 0 mm 2 m/S 714 mmHg 83%
    01:00 +23°C° 0 mm 2 m/S 714 mmHg 81%
    02:00 +23°C° 0 mm 2 m/S 713 mmHg 80%
    03:00 +23°C° 0 mm 1 m/S 713 mmHg 78%
    04:00 +23°C° 0 mm 1 m/S 713 mmHg 77%
    05:00 +24°C° 0 mm 1 m/S 714 mmHg 76%
    06:00 +24°C° 0 mm 1 m/S 714 mmHg 75%
    07:00 +25°C° 0 mm 1 m/S 715 mmHg 74%
    08:00 +27°C° 0.1 mm 1 m/S 715 mmHg 71%
    09:00 +29°C° 0.1 mm 1 m/S 715 mmHg 68%
    10:00 +31°C° 0.1 mm 2 m/S 715 mmHg 64%
    11:00 +31°C° 0.6 mm 2 m/S 714 mmHg 67%
    12:00 +30°C° 0.6 mm 2 m/S 714 mmHg 70%
    13:00 +30°C° 0.6 mm 2 m/S 713 mmHg 73%
    14:00 +30°C° 1 mm 1 m/S 712 mmHg 79%
    15:00 +29°C° 1 mm 1 m/S 712 mmHg 85%
    16:00 +26°C° 1 mm 0 m/S 711 mmHg 90%
    17:00 +27°C° 0.3 mm 1 m/S 712 mmHg 91%
    18:00 +26°C° 0.3 mm 1 m/S 712 mmHg 92%
    19:00 +24°C° 0.3 mm 1 m/S 712 mmHg 93%
    20:00 +24°C° 0 mm 1 m/S 713 mmHg 92%
    21:00 +24°C° 0 mm 1 m/S 713 mmHg 91%
    22:00 +23°C° 0 mm 1 m/S 713 mmHg 90%
    23:00 +23°C° 0 mm 1 m/S 713 mmHg 89%
    Mehr zeigen